Simultaneous Nadir Overpasses (SNOs) Predictions

Prediction of SNOs between LANDSAT-8 and NPP Satellite Orbit:

Table of predicted SNOs for the next 14.0 days since TLE Epoch: 4/30/2022
Index Date (LANDSAT-8) Time (LANDSAT-8) Lat,Lon (LANDSAT-8) SZA (LANDSAT-8 ) Date (NPP) Time (NPP) Lat,Lon (NPP) SZA (NPP ) Distance(km) Time Diff (sec)
1 05/01/2022 14:41:41 70.15, -43.93 54.88 05/01/2022 14:40:51 70.15, -43.94 54.88 0.63 50
2 05/01/2022 15:31:11 -70.04, 123.55 125.24 05/01/2022 15:31:33 -70.07, 123.51 125.22 3.14 22
3 05/04/2022 06:58:12 70.14, 71.94 54.08 05/04/2022 06:57:44 70.14, 71.86 54.07 2.88 28
4 05/04/2022 07:47:43 -69.98,-120.66 126.10 05/04/2022 07:48:25 -70.00,-120.61 126.08 2.67 42
5 05/06/2022 22:25:09 -70.53, 20.74 126.30 05/06/2022 22:23:58 -70.55, 19.68 126.25 39.21 71
6 05/06/2022 23:14:42 70.09,-172.26 53.27 05/06/2022 23:14:35 70.07,-172.26 53.25 2.33 7
7 05/07/2022 00:04:12 -69.99, -4.77 126.85 05/07/2022 00:05:17 -69.98, -4.81 126.86 1.47 65
8 05/09/2022 14:41:45 -70.17, 136.09 127.38 05/09/2022 14:40:44 -70.18, 136.05 127.36 1.67 61
9 05/09/2022 15:31:12 70.06, -56.42 52.51 05/09/2022 15:31:28 70.07, -56.47 52.52 2.12 16
10 05/09/2022 16:20:51 -69.46, 110.39 128.09 05/09/2022 16:22:00 -69.45, 111.77 128.13 53.90 69
11 05/12/2022 06:58:15 -70.10,-108.13 128.14 05/12/2022 06:57:36 -70.12,-108.08 128.11 3.05 39
12 05/12/2022 07:47:41 70.04, 59.43 51.80 05/12/2022 07:48:20 70.01, 59.39 51.77 3.04 39



Historial Predications of SNOs between LANDSAT-8 and NPP
